Location: Garos
(43.5000°N, 0.4667°W)
Time: 17:43:04
(UTC+00:00)

ATLAS 2AS CENTAUR R/B - Pass Details

Date: 03 February 2023
Orbit: 986 x 1226 km, 63.7° (Epoch: 30 March)

Event Time Altitude Azimuth Distance (km) Brightness Sun altitude
Rises 18:22:40 0° 323° (NW) 3,960 6.0 -12.5°
Reaches altitude 10° 18:25:26 10° 323° (NW) 2,962 5.4 -13.0°
Maximum altitude 18:32:26 89° 236° (SW) 1,057 2.7 -14.2°
Drops below altitude 10° 18:39:02 10° 146° (SSE) 2,790 4.6 -15.4°
Sets 18:41:33 0° 147° (SSE) 3,716 5.3 -15.8°
